Miscellaneous Local Product
Issued by NWS Hastings, NE

Home | Current Version | Previous Version | Graphics & Text | Print | Product List | Glossary On
Versions: 1 2 3 4 5 6 7 8 9 10 11 12 13 14 15 16 17 18 19 20 21 22 23 24 25 26 27 28 29 30 31 32 33 34 35 36 37 38 39 40 41 42 43 44 45 46 47 48 49 50
000
AXUS43 KGID 300702
MISGRI

GID CWA HOURLY WEATHER ROUNDUP
NATIONAL WEATHER SERVICE HASTINGS NE
200 AM CDT THU OCT 30 2014

NOTE: "FAIR" INDICATES FEW OR NO CLOUDS BELOW 12,000 FEET WITH NO
SIGNIFICANT WEATHER AND/OR OBSTRUCTIONS TO VISIBILITY.

...SOUTH CENTRAL NEBRASKA...

CITY           SKY/WX    TMP DP  RH WIND       PRES   REMARKS
GRAND ISLAND   MOCLDY    43  36  76 N6        30.00R
HASTINGS       MOCLDY    44  36  73 CALM      29.98R
KEARNEY        PTCLDY    43  34  70 NW8       30.00S
ORD            CLEAR     35  31  85 NW3       30.02R
YORK           CLOUDY    45  37  76 CALM      29.99S
AURORA         CLOUDY    46  36  68 N12       29.99S
LEXINGTON      CLEAR     39  32  76 NW9       30.04R WCI  33
HOLDREGE       CLEAR     44  35  69 CALM      30.00R
HEBRON         MOCLDY    52  35  53 CALM      29.96F

...NEBRASKA PANHANDLE...

CITY           SKY/WX    TMP DP  RH WIND       PRES   REMARKS
CHADRON        CLEAR     36  27  69 W8        30.16R WCI  30
ALLIANCE       CLEAR     30  26  85 W9        30.17R WCI  22
SCOTTSBLUFF    PTCLDY    37  29  72 NW7       30.20R WCI  32
SIDNEY         CLEAR     39  26  59 NW12      30.20R WCI  32

...WESTERN AND NORTH CENTRAL NEBRASKA...

CITY           SKY/WX    TMP DP  RH WIND       PRES   REMARKS
VALENTINE      PTCLDY    40  27  59 NW9       30.07R WCI  34
AINSWORTH      CLEAR     41  27  57 W7        30.06R
ONEILL         CLEAR     42  34  73 W8        30.01S
BROKEN BOW     CLEAR     40  29  64 N6        30.04R
IMPERIAL       PTCLDY    44  24  45 NW10      30.13R
NORTH PLATTE   CLEAR     38  26  62 W5        30.09R WCI  34
MCCOOK         CLEAR     51  25  36 NW12      30.06R

...EASTERN NEBRASKA...

CITY           SKY/WX    TMP DP  RH WIND       PRES   REMARKS
NORFOLK        MOCLDY    44  35  70 CALM      29.99F
SO SIOUX CITY  CLOUDY    47  34  60 SE14      29.99F
TEKAMAH        LGT RAIN  46  32  58 SE12      30.02S
COLUMBUS         N/A    N/A N/A N/A MISG        N/A
ALBION         MOCLDY    41  32  70 CALM      30.00S
OMAHA EPPLEY   PTCLDY    47  34  60 SE7       30.03F
OFFUTT AFB     MOCLDY    45  30  57 E8        30.01F
MILLARD        MOCLDY    47  32  57 SE6       30.02F
LINCOLN        MOCLDY    43  34  70 N7        30.01S
NEBRASKA CITY  MOCLDY    46  29  51 SE6       30.01F
BEATRICE       PTCLDY    48  37  64 S3        29.97F
FALLS CITY     PTCLDY    43  35  73 SE7       30.01F

...NORTHERN KANSAS...

CITY           SKY/WX    TMP DP  RH WIND       PRES   REMARKS
GOODLAND       CLEAR     43  25  49 NW8       30.14R
HILL CITY      PTCLDY    56  28  34 NW17      30.01R
NORTON         SUNNY     48  25  40 NW12      30.01R
PHILLIPSBURG   CLEAR     54  36  50 NW12      29.98S HAZE
SMITH CENTER   CLEAR     48  39  71 W6        29.97S
BELOIT         CLEAR     52  36  54 S9        29.96F
HAYS           PTCLDY    52  37  58 W10       30.02R
RUSSELL        PTCLDY    48  36  63 S9        29.98F
CONCORDIA      MOCLDY    54  36  50 SW14      29.97F
SALINA         PTCLDY    50  36  58 S7        30.01F
TOPEKA         CLEAR     44  38  79 CALM      30.05F



USA.gov is the U.S. government's official web portal to all federal, state and local government web resources and services.